Wetbulb
20.34 21.33 21.63 22.72 23.67 24.06 24.54 24.92 24.85 25.12 25.23 24.98 25.26 25.49 26.00 26.84 28.09 28.00 28.24 28.84 28.39 28.20 28.82 28.51 27.82 29.57 29.42 30.64 32.48 34.03 34.56 34.13 27.20 22.33 23.95 24.29 23.74 23.93 23.12 22.80 23.14 22.75 22.80
19.34 21.74 21.98 22.97 23.45 22.85 23.05 23.87 24.86 24.46 25.19 24.89 25.00 24.87 25.04 25.38 25.88 25.50 24.98 25.65 25.63 25.24 25.72 26.08 25.73 27.39 26.19 27.11 28.02 28.56 29.89 30.33 27.77 22.21 21.51 22.08 22.27 23.44 22.34 20.93 22.33 23.25 22.20
18.68 20.64 22.04 22.81 23.06 22.97 23.25 23.99 24.44 24.54 24.70 25.28 25.34 24.71 24.53 24.60 24.61 24.99 24.94 24.51 24.11 23.88 23.97 23.82 24.19 25.44 24.19 24.42 24.58 24.93 25.97 26.84 26.43 23.50 20.61 21.61 20.60 20.46 19.16 20.12 20.10 20.03 21.18
20.66 20.86 19.66 21.12 22.46 23.35 24.13 24.32 24.81 25.00 24.38 24.12 23.81 23.47 23.82 24.01 24.03 24.05 24.07 23.85 24.16 24.66 24.80 24.11 23.58 23.03 22.77 22.95 23.18 23.22 23.74 22.68 22.47 20.61 18.89 18.02 18.35 18.53 18.28 16.89 16.26 17.66 17.55
18.77 20.06 19.70 21.83 22.67 22.92 22.69 23.30 24.14 24.75 25.36 25.71 25.11 24.80 24.40 23.74 23.18 22.23 22.20 21.75 21.63 21.72 23.36 25.92 26.47 26.41 26.82 25.11 22.37 21.63 21.61 20.65 19.82 18.73 17.10 15.80 14.82 15.16 14.60 14.95 14.38 15.17 16.55
17.33 20.43 21.59 21.97 22.15 22.28 22.39 22.44 22.78 22.77 23.42 24.77 24.99 25.05 24.86 25.63 27.05 26.11 23.24 21.68 21.84 21.22 20.24 20.72 21.16 24.01 27.13 28.13 27.94 27.15 23.86 19.46 18.43 17.52 16.71 15.80 14.95 15.21 15.55 14.63 14.50 12.96 10.79
19.34 21.84 22.44 22.50 22.15 22.32 22.55 21.98 21.42 21.28 22.32 22.13 23.32 24.32 24.30 24.97 26.78 26.01 24.59 22.44 21.47 20.90 20.05 19.66 19.37 19.79 19.38 20.00 23.78 24.65 24.66 25.38 22.89 18.13 15.85 14.86 13.90 15.20 15.62 14.39 14.44 13.41 12.85
20.12 21.49 21.99 21.93 21.63 21.96 21.62 21.09 21.12 21.10 20.55 20.95 21.21 21.71 23.42 24.66 26.25 25.14 23.29 20.05 19.58 19.80 20.23 21.21 20.27 19.59 19.90 18.95 18.44 18.49 18.77 18.71 18.75 18.71 17.33 16.39 16.69 17.38 17.13 16.70 15.16 11.69 11.25
19.94 20.55 21.00 21.60 21.34 21.21 20.75 20.68 21.19 20.83 20.22 20.12 21.15 21.23 20.42 21.71 24.89 24.09 21.68 20.06 19.33 19.16 19.89 19.84 20.96 20.98 23.63 22.59 18.51 16.89 16.38 17.24 22.91 23.70 22.72 22.13 20.99 20.63 19.61 13.18 5.43 2.98 2.20
17.70 18.73 18.58 18.96 19.42 19.10 19.94 19.73 20.43 20.64 20.39 20.80 20.69 20.57 20.85 21.44 25.04 24.02 21.35 19.60 17.64 17.39 18.53 20.21 23.76 22.41 24.29 22.33 17.92 16.58 14.13 14.73 15.57 14.52 14.55 15.56 15.53 14.13 18.06 13.51 9.26 -0.66 -0.45
17.61 18.06 17.73 17.72 16.99 17.21 17.24 17.40 17.51 17.16 17.72 15.44 16.69 16.82 17.51 20.66 22.58 25.04 23.94 19.99 17.93 16.73 16.81 15.82 17.22 23.98 23.63 23.72 20.62 16.90 16.41 16.95 16.03 10.31 9.70 9.19 9.37 10.01 10.18 10.67 10.48 6.05 -1.84
16.06 15.17 13.73 12.60 17.10 15.87 10.83 12.81 12.88 12.73 12.00 10.63 10.68 12.86 14.84 17.26 22.86 24.51 24.02 22.28 21.99 17.58 16.27 15.68 15.87 23.07 23.60 23.37 21.06 21.24 22.71 16.87 7.05 3.54 2.59 4.40 5.75 6.45 7.69 8.57 9.10 8.95 8.80
11.11 8.55 7.38 10.29 15.00 14.44 10.55 11.83 10.77 9.58 10.15 10.90 12.92 10.65 11.19 15.15 15.64 24.02 24.77 24.57 23.95 18.28 17.04 17.32 20.52 23.27 23.45 21.36 22.98 22.45 16.27 8.29 4.79 -0.06 3.19 4.60 5.80 6.91 5.17 2.84 4.84 4.47 5.39
8.65 9.09 9.03 8.98 10.56 9.84 15.17 14.47 12.11 10.48 9.57 12.08 11.64 11.85 10.42 11.64 13.61 14.12 15.78 14.68 21.61 20.41 20.55 16.42 20.42 20.45 21.06 18.03 11.53 16.05 10.31 8.96 6.32 5.47 4.36 3.98 2.59 0.91 2.10 4.41 0.86 1.76 -1.81
9.38 10.02 10.62 11.32 10.93 11.71 13.19 12.95 14.46 14.01 14.23 9.48 10.16 9.61 7.00 9.48 14.61 19.09 17.95 14.54 13.07 17.05 6.97 3.12 4.51 5.41 8.86 9.66 7.40 7.37 7.11 5.62 5.22 5.54 3.18 4.27 2.93 2.01 4.60 2.72 2.72 -2.61 -0.39
10.99 10.58 11.12 11.33 9.55 10.47 9.80 10.33 20.02 22.58 23.18 24.22 25.05 18.04 14.66 19.95 23.20 24.46 25.32 25.45 25.21 24.96 4.42 4.52 9.70 11.08 11.31 11.94 11.10 11.25 9.44 8.89 9.29 8.59 6.69 6.78 6.47 5.87 4.93 0.49 0.88 -1.82 -0.71
11.64 11.51 10.14 10.55 9.50 8.88 7.49 8.62 9.88 12.24 23.05 25.51 26.61 27.00 27.19 26.70 25.91 26.07 26.60 26.54 26.84 26.36 20.68 13.66 13.04 14.81 14.34 13.72 13.13 12.68 12.71 12.57 11.94 8.61 8.20 7.24 6.10 5.71 1.84 3.76 3.78 1.90 0.09
9.78 7.11 9.54 10.56 10.47 8.73 9.29 9.56 6.94 5.24 9.20 7.15 17.08 23.90 26.40 27.60 27.81 27.83 27.78 26.63 20.00 21.64 20.61 18.62 18.01 18.31 17.11 16.45 16.86 15.33 14.30 13.71 8.23 9.00 7.88 7.47 5.91 5.56 -0.05 3.06 3.50 2.75 2.62
9.80 10.74 9.61 7.80 7.91 9.87 5.79 3.48 3.62 2.90 7.63 10.45 6.61 14.49 16.81 23.80 25.79 27.27 28.05 23.12 21.29 20.54 20.10 19.16 19.78 20.06 19.96 19.19 18.25 17.14 15.99 14.85 14.08 11.59 9.10 8.68 6.42 5.48 3.33 4.65 4.64 4.26 3.89
9.45 9.72 6.79 8.76 8.43 3.77 4.33 6.11 6.55 8.34 9.99 10.87 11.24 12.56 2.15 2.03 3.00 12.79 14.86 18.35 20.51 21.20 21.68 21.07 20.76 20.23 19.50 19.00 18.36 17.34 15.64 14.78 13.28 12.43 10.99 9.51 8.38 7.36 5.79 5.42 4.65 3.82 3.04
12.92 11.74 10.47 7.51 5.14 7.82 9.96 9.72 10.93 10.70 10.81 11.62 12.57 13.10 17.12 7.69 12.22 12.27 12.46 12.40 14.30 16.06 17.62 18.71 19.08 18.54 17.97 17.09 16.23 15.64 14.84 13.99 13.25 11.14 11.06 10.29 9.32 7.47 7.15 7.07 6.33 5.74 5.06
13.45 11.96 7.55 9.53 10.23 9.77 9.94 10.04 9.77 9.95 11.22 11.39 12.74 13.19 19.88 16.15 15.67 14.75 14.15 14.59 14.98 14.61 14.96 15.00 14.72 14.71 14.72 14.50 14.62 14.13 13.93 13.64 12.84 12.10 11.32 10.36 9.37 7.97 7.39 7.11 6.14 5.71 5.50
14.08 13.35 10.77 9.20 9.36 8.28 7.06 7.80 7.53 9.54 10.17 10.62 10.78 11.70 13.01 12.94 13.20 14.09 15.08 16.47 17.25 17.33 17.35 16.89 16.10 16.04 17.10 17.25 17.07 16.33 15.05 14.24 14.29 13.40 11.70 10.16 9.17 8.14 7.81 6.81 6.40 5.69 5.17
13.69 12.90 12.73 12.10 10.57 8.33 8.08 9.10 9.07 7.91 9.19 10.12 10.63 11.89 12.93 13.85 14.28 14.63 14.95 15.36 15.89 16.89 17.62 17.44 17.35 17.00 17.22 17.08 16.96 16.74 16.54 16.29 16.01 15.25 12.63 11.00 9.03 7.96 7.56 6.87 6.51 6.05 4.68
9.75 11.26 11.29 12.49 11.35 10.28 9.88 9.31 9.26 9.75 10.69 11.58 11.94 12.29 12.72 13.20 13.44 13.69 14.47 15.51 15.66 15.62 15.88 16.45 16.99 16.81 16.31 15.82 15.67 15.71 15.57 15.92 15.24 14.74 13.09 10.90 9.32 8.58 7.69 6.96 6.32 5.04 2.99
11.26 7.73 6.31 5.99 5.10 5.88 6.90 9.21 10.39 12.48 12.44 13.19 13.83 14.13 14.49 14.70 15.08 15.27 15.07 15.10 15.24 15.57 15.80 16.05 15.87 15.43 15.12 14.83 14.56 14.84 14.64 15.76 14.68 14.09 13.14 10.83 8.25 7.01 6.44 5.67 5.13 4.01 2.24
MSLP
1016.41 1015.86 1015.51 1015.08 1014.62 1014.25 1013.89 1013.79 1013.48 1013.16 1013.14 1012.81 1012.69 1012.56 1012.23 1012.67 1012.43 1011.46 1011.12 1012.10 1013.14 1013.03 1013.18 1013.08 1012.88 1013.31 1013.30 1013.47 1013.73 1013.28 1014.06 1014.16 1016.47 1019.41 1020.16 1020.65 1021.51 1021.84 1022.95 1022.76 1023.06 1022.77 1022.53
1016.61 1016.02 1015.67 1015.33 1015.01 1014.79 1014.62 1014.26 1013.81 1013.46 1013.47 1013.30 1013.40 1013.15 1012.75 1012.20 1011.80 1011.50 1012.15 1012.98 1013.34 1013.63 1014.15 1013.63 1013.72 1014.24 1014.25 1014.08 1013.95 1014.25 1014.73 1014.82 1015.91 1018.32 1020.23 1021.11 1021.54 1022.18 1022.84 1023.04 1022.44 1022.30 1022.57
1016.91 1016.46 1015.93 1015.60 1015.43 1015.23 1015.00 1014.66 1014.34 1014.16 1013.99 1013.87 1013.68 1013.60 1013.57 1013.53 1013.28 1013.13 1013.52 1013.76 1013.95 1014.24 1014.21 1014.36 1014.82 1014.80 1014.88 1014.84 1015.10 1015.36 1015.46 1016.05 1016.44 1017.08 1019.39 1020.64 1021.79 1022.51 1022.97 1022.42 1022.44 1022.53 1022.65
1017.21 1016.87 1016.43 1016.13 1015.84 1015.60 1015.41 1015.17 1014.93 1014.73 1014.49 1014.45 1014.35 1014.41 1014.46 1014.52 1014.20 1014.25 1014.32 1014.46 1014.69 1015.10 1015.40 1015.21 1015.63 1015.55 1015.40 1015.21 1015.74 1015.71 1016.52 1016.86 1017.17 1017.41 1019.39 1020.35 1021.23 1022.31 1022.43 1022.47 1022.79 1022.64 1022.69
1017.53 1017.13 1016.83 1016.55 1016.32 1016.07 1015.84 1015.61 1015.44 1015.21 1015.13 1014.87 1014.76 1014.94 1015.00 1014.90 1014.90 1014.95 1015.14 1015.46 1015.67 1015.98 1016.09 1016.22 1016.26 1016.09 1016.05 1016.00 1016.29 1016.46 1016.65 1016.62 1017.54 1018.32 1018.95 1020.53 1021.78 1022.35 1022.69 1022.79 1022.96 1022.66 1022.65
1018.05 1017.66 1017.29 1017.06 1016.87 1016.70 1016.63 1016.47 1016.24 1015.99 1015.64 1015.58 1015.64 1015.54 1015.46 1015.44 1015.67 1015.64 1015.86 1016.19 1016.78 1017.20 1017.45 1017.51 1017.50 1017.33 1017.10 1016.92 1017.01 1017.09 1017.17 1017.57 1018.53 1018.93 1019.83 1021.00 1022.06 1022.50 1022.96 1022.84 1022.96 1023.21 1023.21
1018.50 1018.15 1017.86 1017.64 1017.53 1017.40 1017.33 1017.15 1017.07 1017.02 1017.02 1016.87 1016.67 1016.60 1016.41 1016.32 1016.49 1016.42 1016.63 1017.04 1017.56 1017.81 1017.88 1017.96 1017.83 1018.13 1017.99 1017.96 1017.87 1018.09 1018.51 1018.96 1019.16 1019.33 1020.03 1020.99 1021.82 1022.27 1022.54 1022.87 1023.08 1023.54 1023.26
1018.53 1018.40 1018.24 1018.12 1018.06 1018.04 1017.93 1017.90 1017.89 1017.88 1017.84 1017.75 1017.57 1017.25 1016.98 1017.08 1017.18 1017.34 1017.70 1018.06 1018.37 1018.49 1018.46 1018.48 1018.39 1018.84 1018.78 1018.73 1018.92 1019.42 1019.79 1019.99 1019.99 1020.10 1020.64 1021.20 1021.50 1022.10 1022.43 1022.60 1023.22 1023.44 1023.05
1018.88 1018.81 1018.66 1018.50 1018.45 1018.42 1018.34 1018.42 1018.43 1018.37 1018.32 1018.20 1018.09 1017.86 1017.80 1017.84 1017.98 1018.19 1018.49 1018.75 1018.93 1019.12 1019.01 1018.89 1018.97 1019.05 1019.12 1019.38 1019.55 1019.80 1020.11 1020.57 1020.33 1020.40 1020.63 1020.99 1021.37 1021.56 1021.77 1022.28 1023.35 1024.09 1024.07
1018.97 1018.89 1018.83 1018.76 1018.76 1018.80 1018.83 1018.82 1018.88 1018.87 1018.86 1018.82 1018.76 1018.63 1018.46 1018.33 1018.33 1018.39 1018.49 1018.73 1018.99 1019.18 1019.20 1019.30 1019.32 1019.14 1019.29 1019.44 1019.48 1019.81 1020.23 1020.60 1020.95 1021.30 1021.44 1021.73 1021.89 1021.85 1021.66 1022.30 1023.12 1024.10 1024.24
1019.37 1019.16 1019.01 1018.89 1018.82 1018.78 1018.86 1018.91 1018.99 1019.09 1019.16 1019.26 1019.24 1019.14 1018.96 1018.75 1018.59 1018.57 1018.61 1018.72 1018.87 1019.17 1019.44 1019.56 1019.48 1019.40 1019.33 1019.40 1019.72 1019.85 1019.97 1020.38 1020.71 1021.22 1021.53 1021.71 1021.78 1021.90 1022.04 1022.22 1022.40 1022.73 1023.35
1019.12 1019.30 1019.50 1019.50 1019.41 1019.48 1019.63 1019.72 1019.74 1019.78 1019.76 1019.81 1019.82 1019.81 1019.53 1019.29 1019.06 1018.92 1018.93 1019.03 1019.14 1019.39 1019.47 1019.53 1019.50 1019.35 1019.35 1019.39 1019.53 1019.75 1019.77 1020.13 1020.62 1021.24 1021.70 1021.78 1021.82 1021.64 1021.61 1021.77 1021.81 1021.98 1021.84
1019.62 1019.72 1019.90 1019.68 1019.60 1019.60 1019.79 1019.84 1019.85 1019.86 1019.88 1019.99 1020.05 1020.02 1019.78 1019.47 1019.26 1019.05 1018.94 1018.96 1019.12 1019.46 1019.54 1019.64 1019.68 1019.53 1019.45 1019.41 1019.43 1019.51 1019.62 1020.11 1020.79 1021.37 1021.40 1021.22 1020.85 1020.57 1020.81 1021.33 1021.27 1021.31 1021.08
1019.59 1019.68 1019.91 1020.00 1019.95 1019.80 1019.65 1019.64 1019.60 1019.56 1019.63 1019.67 1019.77 1019.77 1019.54 1019.52 1019.29 1019.06 1018.93 1018.84 1018.87 1019.06 1019.31 1019.33 1019.28 1019.25 1019.36 1019.31 1019.42 1019.41 1019.50 1019.82 1020.20 1020.15 1020.06 1019.89 1020.07 1020.36 1020.39 1020.45 1020.64 1020.76 1021.10
1019.37 1019.46 1019.58 1019.57 1019.49 1019.49 1019.40 1019.26 1019.25 1019.10 1019.12 1019.18 1019.28 1019.39 1019.31 1019.07 1018.37 1018.28 1018.38 1018.52 1018.55 1018.66 1019.00 1019.28 1019.40 1019.45 1019.14 1018.99 1018.91 1018.85 1018.93 1019.20 1019.45 1019.32 1019.55 1019.72 1019.78 1019.84 1019.58 1019.55 1019.84 1020.22 1020.26
1019.03 1019.10 1019.08 1019.19 1019.19 1019.17 1019.10 1018.89 1018.47 1018.16 1018.21 1018.16 1018.04 1018.12 1018.07 1017.87 1017.74 1017.59 1017.55 1017.63 1017.77 1018.09 1018.58 1018.70 1018.76 1018.77 1018.59 1018.38 1018.36 1018.27 1018.27 1018.26 1018.08 1018.26 1018.51 1018.67 1018.79 1018.85 1018.76 1018.92 1019.10 1019.23 1019.20
1018.17 1018.21 1018.38 1018.56 1018.65 1018.76 1018.80 1018.83 1018.44 1017.67 1017.45 1017.26 1017.05 1016.89 1016.85 1016.71 1016.79 1016.73 1016.66 1016.76 1016.89 1017.17 1017.21 1017.43 1017.46 1017.31 1017.07 1016.99 1016.90 1016.91 1016.75 1016.57 1016.76 1017.04 1017.15 1017.22 1017.38 1017.53 1017.81 1017.84 1017.92 1018.00 1017.67
1017.28 1017.52 1017.82 1018.01 1018.16 1018.20 1018.21 1018.16 1018.07 1018.14 1017.76 1016.94 1016.37 1016.23 1016.02 1015.90 1015.88 1015.88 1016.01 1016.23 1016.24 1016.12 1015.96 1015.90 1015.69 1015.58 1015.42 1015.33 1015.20 1015.09 1014.98 1015.00 1015.48 1015.71 1015.88 1015.95 1016.11 1016.24 1016.45 1016.36 1016.41 1016.40 1016.20
1016.41 1016.64 1016.88 1017.11 1017.36 1017.57 1017.71 1017.85 1017.83 1017.67 1017.39 1016.78 1016.49 1015.89 1015.60 1015.47 1015.24 1015.00 1015.06 1014.97 1014.86 1014.68 1014.50 1014.37 1014.11 1013.93 1013.75 1013.64 1013.50 1013.47 1013.52 1013.66 1013.80 1013.94 1014.03 1014.30 1014.45 1014.72 1014.74 1014.74 1014.84 1014.80 1014.92
1015.34 1015.62 1015.97 1016.36 1016.75 1017.01 1017.16 1017.21 1017.10 1016.94 1016.64 1016.23 1015.92 1015.38 1015.44 1015.63 1014.95 1014.46 1014.41 1014.11 1013.76 1013.31 1013.02 1012.85 1012.57 1012.42 1012.30 1012.30 1012.22 1012.17 1012.23 1012.25 1012.31 1012.48 1012.61 1012.74 1012.93 1013.19 1013.31 1013.48 1013.61 1013.58 1013.72
1014.24 1014.68 1015.04 1015.60 1015.86 1016.10 1016.24 1016.24 1016.11 1016.07 1015.77 1015.34 1014.74 1014.50 1014.51 1014.76 1014.18 1013.79 1013.46 1013.22 1012.92 1012.58 1012.14 1011.75 1011.41 1011.24 1011.16 1011.01 1010.91 1010.88 1010.81 1010.77 1010.91 1011.21 1011.35 1011.39 1011.61 1011.89 1011.95 1012.04 1012.16 1012.22 1012.35
1013.04 1013.45 1013.92 1014.34 1014.70 1014.97 1015.03 1015.21 1015.25 1015.19 1014.94 1014.62 1014.06 1013.85 1013.60 1013.44 1013.07 1012.60 1012.27 1011.89 1011.50 1011.28 1010.99 1010.75 1010.46 1010.28 1010.02 1009.84 1009.79 1009.74 1009.70 1009.66 1009.78 1009.89 1010.02 1010.16 1010.28 1010.48 1010.66 1010.73 1010.86 1010.97 1011.14
1012.22 1012.65 1013.10 1013.48 1013.76 1014.02 1014.29 1014.41 1014.49 1014.41 1014.18 1013.90 1013.55 1013.12 1012.80 1012.36 1011.97 1011.53 1011.04 1010.61 1010.36 1010.10 1009.89 1009.72 1009.45 1009.16 1008.95 1008.69 1008.52 1008.43 1008.31 1008.34 1008.41 1008.64 1008.76 1008.89 1009.05 1009.23 1009.48 1009.57 1009.63 1009.73 1009.83
1012.01 1012.32 1012.65 1013.03 1013.41 1013.63 1013.73 1013.72 1013.64 1013.53 1013.33 1013.01 1012.72 1012.34 1011.93 1011.52 1011.08 1010.65 1010.31 1010.00 1009.65 1009.22 1008.96 1008.68 1008.41 1008.12 1007.93 1007.78 1007.62 1007.51 1007.36 1007.34 1007.39 1007.47 1007.58 1007.71 1007.88 1008.09 1008.26 1008.38 1008.47 1008.51 1008.72
1012.06 1012.37 1012.68 1012.95 1013.11 1013.17 1013.17 1013.11 1013.02 1012.83 1012.57 1012.30 1012.00 1011.71 1011.35 1010.93 1010.47 1009.99 1009.56 1009.15 1008.73 1008.39 1008.09 1007.88 1007.62 1007.34 1007.11 1006.85 1006.68 1006.56 1006.51 1006.39 1006.34 1006.36 1006.46 1006.61 1006.83 1006.94 1007.15 1007.27 1007.35 1007.52 1007.75
1012.24 1012.52 1012.81 1013.04 1013.13 1013.07 1012.95 1012.80 1012.63 1012.50 1012.27 1011.98 1011.61 1011.21 1010.78 1010.39 1009.89 1009.41 1008.98 1008.59 1008.20 1007.77 1007.39 1007.07 1006.79 1006.56 1006.32 1006.03 1005.75 1005.52 1005.37 1005.27 1005.15 1005.22 1005.42 1005.58 1005.75 1005.92 1006.18 1006.29 1006.38 1006.54 1006.74
Wind_Speed
6 4 4 4 4 4 4 3 3 4 4 5 5 5 5 3 2 6 10 8 6 6 6 6 8 5 4 4 2 3 2 4 5 2 2 5 3 6 4 3 2 2 2
5 5 4 4 4 4 4 4 4 5 4 5 4 5 6 7 8 10 10 8 9 9 7 8 8 4 7 5 5 6 4 4 5 8 4 3 3 5 4 4 3 1 1
5 5 4 4 4 4 4 4 5 5 5 6 7 7 8 7 8 9 10 10 11 10 10 10 7 6 8 6 6 5 5 4 3 8 6 3 3 3 3 0 0 0 2
5 5 5 5 4 5 5 5 6 6 7 8 9 9 8 8 9 10 10 11 12 11 10 11 9 9 8 8 7 7 5 7 8 10 7 5 3 2 2 1 1 1 2
4 5 5 6 6 7 8 8 8 8 7 8 9 9 9 9 7 10 11 11 11 12 11 11 11 13 18 13 5 6 7 8 7 7 6 3 2 2 1 1 0 2 1
4 5 5 6 7 8 8 9 9 10 10 10 10 9 10 8 18 19 13 11 10 10 9 9 8 10 17 21 21 19 11 7 7 3 3 4 3 2 1 1 1 3 3
3 4 5 6 8 8 8 9 9 9 8 9 9 8 10 10 17 18 17 9 8 8 7 6 8 6 8 9 18 20 18 18 12 4 5 3 3 3 2 1 0 1 3
3 5 5 5 6 7 7 7 7 6 7 6 7 6 9 9 15 16 16 9 8 8 7 6 8 6 7 7 8 10 9 8 8 7 6 5 4 4 4 3 2 2 3
3 4 4 3 5 5 7 6 5 5 6 6 6 7 6 6 11 11 9 6 8 7 6 5 5 5 10 9 6 7 7 5 7 10 8 6 3 1 4 4 0 3 3
2 4 3 3 4 5 5 4 3 3 4 3 5 4 4 4 9 10 8 4 6 4 3 3 7 6 9 8 5 5 5 3 4 2 2 1 1 2 4 4 4 4 2
1 3 4 4 5 5 5 3 4 4 4 2 3 2 2 1 5 9 10 4 4 4 3 2 1 8 7 7 7 4 4 5 5 4 2 1 1 2 2 2 5 4 3
5 4 3 2 2 2 3 2 2 3 3 1 1 1 2 3 2 4 5 4 7 3 4 2 3 7 6 6 5 7 7 7 3 2 1 2 3 4 4 4 5 6 6
4 3 3 2 2 4 4 4 2 3 3 3 3 2 3 2 2 5 5 6 7 2 1 5 7 8 8 7 10 10 4 3 3 3 4 4 4 4 3 1 3 4 6
6 6 4 4 3 3 1 2 2 3 2 2 3 3 3 3 3 3 3 3 7 5 7 5 8 9 9 8 4 6 2 4 5 5 4 3 1 2 3 4 3 3 1
5 5 5 5 6 5 4 5 5 4 5 4 4 3 3 5 6 10 8 5 4 6 2 1 1 2 4 4 3 4 4 4 5 4 4 5 4 2 5 3 3 2 5
7 6 6 5 4 4 4 4 14 17 15 17 17 10 5 14 14 12 16 17 17 15 1 3 4 5 7 7 6 7 6 8 8 7 7 7 8 7 7 3 4 5 7
10 7 5 6 5 5 4 5 6 4 14 20 20 19 20 17 15 16 18 17 17 16 9 6 7 8 9 8 8 8 10 7 8 7 8 8 8 8 6 7 7 7 7
9 6 6 6 6 5 6 6 3 4 5 4 10 16 18 20 20 20 19 15 8 11 10 11 11 10 10 10 9 9 9 8 7 8 9 8 8 8 6 9 8 9 8
9 8 7 5 5 6 3 2 3 4 7 8 4 8 9 19 20 22 21 10 11 11 11 12 12 12 11 10 10 9 10 9 9 8 8 8 8 7 8 9 8 11 10
9 10 7 7 5 4 4 6 5 7 8 8 8 9 2 1 2 7 7 9 10 12 12 12 11 11 11 11 10 9 9 9 9 9 9 8 8 8 9 9 9 8 8
8 8 11 5 5 6 7 8 8 7 8 8 10 6 11 6 8 8 8 8 10 11 12 11 11 10 10 10 10 10 10 10 9 9 8 8 8 8 8 8 8 8 8
8 7 6 9 7 7 8 7 6 7 8 9 10 8 18 8 9 9 10 11 10 10 10 11 10 10 10 10 10 9 10 10 9 9 9 9 8 8 8 8 8 8 9
7 7 6 6 6 5 4 5 6 7 8 9 8 9 9 9 10 11 11 11 10 9 9 9 10 10 9 9 9 9 10 10 9 9 9 9 9 8 8 9 9 8 9
5 5 5 4 3 4 5 6 6 8 9 9 9 9 9 10 10 11 10 10 10 10 9 9 9 12 10 9 8 9 9 9 8 8 11 9 8 9 8 9 9 10 9
3 2 2 3 3 4 4 5 6 6 7 7 8 8 8 9 9 9 9 9 9 9 10 9 9 11 12 14 13 13 12 14 12 11 8 9 11 12 9 8 9 8 10
2 2 1 1 2 3 3 4 4 5 6 6 6 6 7 8 8 9 9 9 9 9 9 8 9 12 14 12 14 15 15 16 14 14 10 9 9 9 8 11 14 10 11
Wind_Direction
321 326 338 341 348 356 6 351 359 34 37 46 40 12 18 57 81 86 73 79 99 87 66 83 73 55 62 60 57 71 134 94 112 96 96 113 102 128 140 132 174 192 182
328 344 355 7 12 13 2 10 21 48 40 62 71 68 44 27 44 63 68 69 75 75 72 75 67 67 68 58 63 52 42 43 113 129 119 134 116 129 149 189 198 155 233
351 351 7 29 32 28 27 34 46 58 56 60 67 69 67 63 64 71 79 78 72 63 56 62 58 72 72 67 68 76 63 69 90 123 118 112 97 127 188 176 186 14 278
2 9 16 19 30 40 46 49 59 63 71 71 69 70 70 76 76 79 84 81 79 76 71 66 60 62 66 70 67 77 86 100 100 100 111 104 102 135 118 95 233 172 280
17 32 30 35 44 48 47 47 50 53 57 72 75 76 78 77 76 79 77 76 73 68 59 65 68 73 77 78 80 72 89 89 88 100 86 82 99 122 156 121 290 299 283
17 41 47 51 52 56 53 54 55 51 47 54 65 71 79 82 91 92 86 85 82 84 85 77 66 65 77 79 76 74 74 89 101 90 96 106 104 101 132 92 37 19 341
21 50 57 59 62 62 65 63 59 59 59 54 61 70 74 82 93 91 84 78 82 79 77 77 78 63 63 69 71 68 63 69 75 108 108 100 128 151 132 99 112 215 240
65 62 54 65 68 63 65 63 53 56 56 52 45 53 81 83 89 90 88 80 78 71 69 68 83 80 78 77 83 81 77 69 60 69 89 116 115 162 175 166 159 284 300
71 66 57 65 88 83 80 74 62 65 56 45 37 38 50 77 97 101 98 90 88 83 74 61 72 91 98 105 104 107 101 92 91 108 110 109 97 135 156 103 74 79 294
152 135 119 105 111 109 115 111 99 89 92 92 89 63 77 113 125 129 124 126 120 115 89 105 127 116 118 116 115 132 132 156 148 112 85 134 188 228 207 164 156 164 189
188 153 150 150 147 150 143 140 136 121 106 89 111 92 72 110 150 151 152 153 150 151 163 168 251 152 149 152 158 166 172 155 168 156 192 238 276 257 234 202 185 155 163
179 173 181 200 179 127 109 60 54 96 115 134 105 1 336 338 346 160 163 168 172 164 191 194 210 201 205 204 180 208 200 146 129 136 185 234 213 207 214 211 208 206 215
169 191 210 209 177 175 158 161 151 158 163 196 198 212 253 273 290 235 205 200 204 220 174 216 217 228 235 238 222 231 189 156 164 172 212 220 202 193 165 210 226 229 250
198 197 195 189 216 239 220 198 185 191 203 218 218 230 236 248 242 241 244 260 247 225 222 230 232 225 242 239 241 254 168 195 197 218 218 221 214 189 202 184 200 165 217
209 209 213 208 203 205 215 202 214 220 194 198 226 204 202 251 245 233 222 229 227 231 153 11 299 269 259 260 252 233 226 218 228 226 240 253 249 224 250 178 212 176 212
210 216 215 209 212 222 224 262 246 242 240 243 243 217 228 242 254 251 240 240 239 239 53 222 244 241 246 248 245 251 236 233 233 227 227 232 236 232 236 205 196 197 222
214 213 207 210 208 211 216 222 253 286 255 252 251 252 254 252 248 257 254 253 250 246 241 223 237 236 241 238 235 230 242 227 220 217 226 231 228 233 215 232 230 218 234
214 215 206 217 219 215 219 227 219 232 259 275 260 254 257 256 256 257 255 257 257 250 243 243 248 245 241 243 243 238 241 237 209 221 225 228 224 228 216 232 231 237 244
210 221 215 213 215 225 207 206 221 227 245 261 289 270 254 260 262 258 251 241 240 240 234 238 242 247 246 244 243 242 239 240 235 224 225 224 221 219 229 234 235 231 235
214 221 196 211 218 206 205 221 230 236 248 252 253 257 235 109 251 250 239 243 245 247 248 246 246 245 246 248 250 248 248 244 240 237 239 229 230 221 232 234 230 234 231
213 215 213 206 205 214 224 227 237 242 248 256 260 253 242 220 258 251 248 239 242 248 253 254 253 250 250 250 248 249 249 249 242 236 239 232 226 229 227 232 235 231 237
206 210 191 214 219 220 228 231 230 238 249 256 268 266 267 259 255 251 251 252 247 242 243 246 248 247 246 242 244 246 250 250 243 239 236 233 230 228 229 228 227 229 233
208 210 204 211 216 218 217 222 228 242 252 257 262 268 266 256 256 257 260 264 263 258 251 247 249 252 248 246 242 242 250 251 246 232 236 232 227 226 227 231 233 235 234
208 211 216 214 204 216 228 241 236 239 251 260 264 266 268 269 271 272 270 268 269 269 267 264 262 261 262 255 250 246 244 246 244 245 226 230 227 227 230 231 233 234 238
146 158 187 229 224 230 239 243 249 252 253 256 263 265 268 271 273 272 272 272 273 271 270 265 262 262 260 259 255 256 254 250 247 240 233 223 231 234 232 235 236 236 236
109 122 193 263 266 264 259 276 281 285 286 289 287 286 290 289 288 289 287 281 278 277 279 274 271 268 269 268 266 261 256 254 250 243 236 226 227 229 228 235 240 238 242